Regional Weather Roundup
Issued by NWS

Home | Current Version | Previous Version | Graphics & Text | Print | Product List | Glossary On
Versions: 1 2 3 4 5 6 7 8 9 10 11 12 13 14 15 16 17 18 19 20 21 22 23 24 25 26 27 28 29 30 31 32 33 34 35 36 37 38 39 40 41 42 43 44 45 46 47 48 49 50
000
ASUS43 KMKX 251600
RWRWI

WISCONSIN REGIONAL WEATHER ROUNDUP
NATIONAL WEATHER SERVICE MILWAUKEE/SULLIVAN WI
1000 AM CST SAT FEB 25 2017

NOTE: "FAIR" INDICATES FEW OR NO CLOUDS BELOW 12,000 FEET WITH NO
SIGNIFICANT WEATHER AND/OR OBSTRUCTIONS TO VISIBILITY.

WIZ001-002-006>008-014>016-023>028-251700-
NORTHWEST WISCONSIN

CITY           SKY/WX    TMP DP  RH WIND       PRES   REMARKS
SUPERIOR ARPT  SUNNY     16   4  59 NW9       29.89F WCI   4
ASHLAND        CLOUDY    16   8  71 NW12      29.82R WCI   3
HAYWARD        PTSUNNY   13   2  61 NW10G22   29.82S WCI   0
SIREN          SUNNY     16   2  54 NW13G20   29.89F WCI   2
CUMBERLAND     SUNNY     16   3  57 NW16      29.85S WCI   0
RICE LAKE      SUNNY     15   4  59 NW10G18   29.88R WCI   3
CHETEK         MOSUNNY   15   4  62 NW3       29.87R
LADYSMITH      CLOUDY    13   5  71 NW18G24   29.83R WCI  -5
EAU CLAIRE     NOT AVBL
MENOMONIE      SUNNY     16   4  57 W16       29.90R WCI   1
NEW RICHMOND   SUNNY     19   4  52 NW15G22   29.91S WCI   4
OSCEOLA        SUNNY     19   3  49 NW10G22   29.95S WCI   7
$$

WIZ003>005-009-010-017-018-251700-
NORTH CENTRAL WISCONSIN

CITY           SKY/WX    TMP DP  RH WIND       PRES   REMARKS
MANITOWISH WTR LGT SNOW  12   9  88 NW10      29.68R WCI  -1
ARBOR VITAE    LGT SNOW  17  11  80 NW13G25     N/A  WCI   3
WOODRUFF       LGT SNOW  17  11  80 NW13G25     N/A  WCI   3
RHINELANDER    LGT SNOW  15   8  73 NW13G23   29.67R WCI   1
EAGLE RIVER    LGT SNOW  16   9  74 NW20      29.63S WCI  -1
LAND O LAKES   LGT SNOW  16  11  80 NW10G23   29.64S WCI   4
PHILLIPS       LGT SNOW  12   6  77 W10G16    29.74R WCI  -1
TOMAHAWK       LGT SNOW  13   8  79 W13G20    29.71R WCI  -2
MEDFORD        CLOUDY    12   5  74 NW13      29.74R WCI  -3
MERRILL        NOT AVBL
$$

WIZ029-030-035-036-043>047-251700-
CENTRAL WISCONSIN

CITY           SKY/WX    TMP DP  RH WIND       PRES   REMARKS
WAUSAU         CLOUDY    15   8  73 NW17G24   29.73R WCI  -1
MOSINEE        LGT SNOW  16   9  73 W17G24    29.75R WCI   0
MARSHFIELD     FLURRIES  13   5  70 NW17      29.77R WCI  -4
STEVENS POINT  CLOUDY    14   6  70 W8G20     29.76R WCI   2
WAUPACA        CLOUDY    20  10  66 W12G18    29.76R WCI   8
WAUTOMA        CLOUDY    17   9  70 W21G28    29.80R WCI   0
WISC RAPIDS    CLOUDY    16   7  67 NW12      29.80S WCI   3
CAMP DOUGLAS   NOT AVBL
$$

WIZ011>013-019>022-031-037>040-048>050-251700-
NORTHEAST WISCONSIN

CITY           SKY/WX    TMP DP  RH WIND       PRES   REMARKS
ANTIGO         LGT SNOW  14   8  78 NW16G25   29.66R WCI  -2
SHAWANO        CLOUDY    22  13  67 CALM      29.71R
OCONTO         CLOUDY    20  15  82 W12G21    29.67S WCI   7
STURGEON BAY   MIX PCPN  22  17  81 W15G22    29.66R WCI   9
GREEN BAY      LGT SNOW  20  15  81 W20       29.71R WCI   4
MANITOWOC      LGT SNOW  21  16  79 NW20G26   29.70R WCI   6
APPLETON       PTSUNNY   19   9  63 W14       29.71R WCI   6
CLINTONVILLE   CLOUDY    19  10  68 NW17G26   29.72R WCI   4
OSHKOSH        LGT SNOW  17  10  74 W15G25    29.74R WCI   2
$$

WIZ032>034-041-042-053>061-251700-
SOUTHWEST WISCONSIN

CITY           SKY/WX    TMP DP  RH WIND       PRES   REMARKS
LA CROSSE      SUNNY     20   8  60 NW21G29   29.90R WCI   4
SPARTA         MOSUNNY   17   8  70 NW20G26   29.87R WCI   0
VIROQUA        MOSUNNY   17   8  70 NW15      29.83S WCI   2
BOSCOBEL       MOSUNNY   20   8  60 NW9G21    29.90R WCI   9
PRAIRIE DU CHI SUNNY     19   8  62 NW17G25   29.92R WCI   4
PLATTEVILLE    MOSUNNY   18  12  79 W3        29.87R
$$

WIZ056-057-062-063-064-067-068-251700-
SOUTH CENTRAL WISCONSIN

CITY           SKY/WX    TMP DP  RH WIND       PRES   REMARKS
REEDSBURG      CLOUDY    15   7  71 NW12G17   29.84R WCI   2
BARABOO/DELLS  CLOUDY    15   8  75 NW7G16    29.82R WCI   5
LONE ROCK      NOT AVBL
MINERAL POINT  FLURRIES  19  14  79 NW3       29.84R
MADISON        FLURRIES  17   9  70 W12G22    29.82R WCI   4
MIDDLETON      CLOUDY    19  12  76 NW6       29.83R WCI  10
WATERTOWN      CLOUDY    17  10  74 NW15G25   29.79R WCI   2
MONROE         PTSUNNY   21  12  68 NW14G26   29.82R WCI   8
JANESVILLE     PTSUNNY   21  12  68 NW21G26   29.82R WCI   6
$$

WIZ051-052-058>065-066-070>072-251700-
SOUTHEAST WISCONSIN

CITY           SKY/WX    TMP DP  RH WIND       PRES   REMARKS
MILWAUKEE      FLURRIES  23  12  62 NW16G26   29.77R WCI  10
WAUKESHA       CLOUDY    18  10  73 W20G30    29.78R WCI   1
MILWAUKEE/TIMM LGT SNOW  19  10  68 NW22G28   29.77R WCI   3
RACINE         CLOUDY    22  12  65 NW15G24   29.79R WCI   9
KENOSHA        CLOUDY    22  13  68 W20       29.78R WCI   7
FOND DU LAC    MIX PCPN  18   8  65 W16G26    29.76R WCI   3
SHEBOYGAN      MIX PCPN  19  11  70 W15G26    29.73R WCI   5
WEST BEND      LGT SNOW  19  14  79 W8        29.74R WCI   9
JUNEAU         LGT SNOW  15   9  75 W5        29.78R WCI   8
$$

LSZ147-162-251700-
LAKE SUPERIOR

STATION/POSITION TIME  TEMP    WIND        PRES    WAVE
                       AIR SEA DIR/SP/G            HT/PER
                 (UTC) (F)     (DEG/KT/KT) (MB)    (FT/S)
DEVILS ISLAND    1500   16     300/ 13/ 16 1010.2F
PORT WING        1540   17     310/ 16/ 22 1010.8S
SAXON HARBOR     1540   17     290/  8/ 15 1008.8R
$$

LMZ867-665-643>646-251700-
LAKE MICHIGAN

STATION/POSITION TIME  TEMP    WIND        PRES    WAVE
                       AIR SEA DIR/SP/G            HT/PER
                 (UTC) (F)     (DEG/KT/KT) (MB)    (FT/S)
CHAMBERS ISLAND  1540   21     260/  1/  2 1003.4R
NORTHPORT PIER   1540   20     300/  2/  3 1003.0R
SISTER BAY       1520   21        CALM       N/A
KEWAUNEE LAKESHO 1530   20     290/ 13/ 19 1004.2R
SHEBOYGAN LAKESH 1500   20     290/  7/ 10 1006.8R
PORT WASHINGTON  1440   21     300/ 12/ 20 1007.5R
MILWAUKEE LAKESH 1530   22     290/ 13/ 14   N/A
KENOSHA   LAKESH 1500   21     300/ 19/ 25 1008.1
$$

TC  - TEMPERATURE IN CELSIUS
VSB - VISIBILITY IN STATUTE MILES
WCI - WIND CHILL INDEX
HX  - HEAT INDEX





USA.gov is the U.S. government's official web portal to all federal, state and local government web resources and services.